Satellite: FO-70
Catalog number: 37380
Epoch time:      11341.52303154
Element set:    0049
Inclination:      071.9760 deg
RA of node:       017.3443 deg
Eccentricity:    0.0018899
Arg of perigee:   311.5452 deg
Mean anomaly:     048.4102 deg
Mean motion:   14.76587263 rev/day
Decay rate:      1.222e-05 rev/day^2
Epoch rev:           00754
Checksum:              282

/EX
SB KEPS @ AMSAT  $ORB11342.W
Orbital Elements  11342.WEATHER

HR AMSAT ORBITAL ELEMENTS FOR WEATHER SATELLITES
FROM WA5QGD FORT WORTH,TX December 8, 2011
Send Subscribe/unsubscribe to KEPS at http://www.amsat.org/mailman/listinfo/kep
BID: ORB11342.W
TO ALL RADIO AMATEURS BT

Satellite: NOAA-10
Catalog number: 16969
Epoch time:      11341.69100640
Element set:    0729
Inclination:      098.6034 deg
RA of node:       008.9738 deg
Eccentricity:    0.0013089
Arg of perigee:   077.9662 deg
Mean anomaly:     282.2987 deg
Mean motion:   14.27508842 rev/day
Decay rate:       2.15e-06 rev/day^2
Epoch rev:           31240
Checksum:              316

Satellite: NOAA-11
Catalog number: 19531
Epoch time:      11341.87574984
Element set:    0730
Inclination:      098.7459 deg
RA of node:       065.9946 deg
Eccentricity:    0.0011906
Arg of perigee:   054.4905 deg
Mean anomaly:     305.7392 deg
Mean motion:   14.14942866 rev/day
Decay rate:        4.9e-07 rev/day^2
Epoch rev:           19731
Checksum:              337

Satellite: NOAA-12
Catalog number: 21263
Epoch time:      11342.77582028
Element set:     222
Inclination:      098.7414 deg
RA of node:       000.2160 deg
Eccentricity:    0.0014287
Arg of perigee:   040.4573 deg
Mean anomaly:     319.8154 deg
Mean motion:   14.25462587 rev/day
Decay rate:       2.00e-06 rev/day^2
Epoch rev:            6926
Checksum:              270

Satellite: MET-3/5
Catalog number: 21655
Epoch time:      11341.64581646
Element set:     279
Inclination:      082.5569 deg
RA of node:       288.2090 deg
Eccentricity:    0.0014674
Arg of perigee:   083.5605 deg
Mean anomaly:     276.7151 deg
Mean motion:   13.17035057 rev/day
Decay rate:        5.1e-07 rev/day^2
Epoch rev:           97655
Checksum:              318

Satellite: MET-2/21
Catalog number: 22782
Epoch time:      11341.66210198
Element set:    0279
Inclination:      082.5464 deg
RA of node:       185.2515 deg
Eccentricity:    0.0022058
Arg of perigee:   336.0778 deg
Mean anomaly:     023.9339 deg
Mean motion:   13.83670241 rev/day
Decay rate:        7.6e-07 rev/day^2
Epoch rev:           92254
Checksum:              304

Satellite: OKEAN-4
Catalog number: 23317
Epoch time:      11342.89552475
Element set:     743
Inclination:      082.5407 deg
RA of node:       209.9700 deg
Eccentricity:    0.0019963
Arg of perigee:   263.6318 deg
Mean anomaly:     096.2622 deg
Mean motion:   14.83439458 rev/day
Decay rate:      1.719e-05 rev/day^2
Epoch rev:           92644
Checksum:              328

Satellite: NOAA-14
Catalog number: 23455
Epoch time:      11342.83534388
Element set:     704
Inclination:      098.8409 deg
RA of node:       063.6448 deg
Eccentricity:    0.0009795
Arg of perigee:   140.2155 deg
Mean anomaly:     220.0219 deg
Mean motion:   14.13861414 rev/day
Decay rate:       2.68e-06 rev/day^2
Epoch rev:           87384
Checksum:              310

Satellite: NOAA-15
Catalog number: 25338
Epoch time:      11342.79604029
Element set:      50
Inclination:      098.6726 deg
RA of node:       326.7117 deg
Eccentricity:    0.0010057
Arg of perigee:   308.7654 deg
Mean anomaly:     051.3106 deg
Mean motion:   14.25001723 rev/day
Decay rate:       3.81e-06 rev/day^2
Epoch rev:           70560
Checksum:              272

Satellite: RESURS
Catalog number: 25394
Epoch time:      11342.89677770
Element set:     960
Inclination:      098.3066 deg
RA of node:       336.3629 deg
Eccentricity:    0.0002338
Arg of perigee:   075.0077 deg
Mean anomaly:     285.1362 deg
Mean motion:   14.24261586 rev/day
Decay rate:       1.17e-06 rev/day^2
Epoch rev:           69717
Checksum:              320

Satellite: FENGYUN1
Catalog number: 25730
Epoch time:      11341.95828196
Element set:    0507
Inclination:      098.8328 deg
RA of node:       299.5007 deg
Eccentricity:    0.0021669
Arg of perigee:   191.0228 deg
Mean anomaly:     169.0467 deg
Mean motion:   14.09106028 rev/day
Decay rate:       8.02e-06 rev/day^2
Epoch rev:           64753
Checksum:              313

Satellite: OKEAN-0
Catalog number: 25860
Epoch time:      11342.91138728
Element set:     486
Inclination:      097.9090 deg
RA of node:       304.8030 deg
Eccentricity:    0.0001561
Arg of perigee:   092.9548 deg
Mean anomaly:     267.1839 deg
Mean motion:   14.74001403 rev/day
Decay rate:      1.175e-05 rev/day^2
Epoch rev:           66639
Checksum:              304

Satellite: NOAA-16
Catalog number: 26536
Epoch time:      11342.81015446
Element set:     532
Inclination:      099.1223 deg
RA of node:       016.7404 deg
Eccentricity:    0.0009906
Arg of perigee:   261.9003 deg
Mean anomaly:     098.1529 deg
Mean motion:   14.12680696 rev/day
Decay rate:       1.71e-06 rev/day^2
Epoch rev:           57801
Checksum:              289

